Overview Statistics Trail Chart Weather Telemetry Raw packets
 

This is the latest recevied weather packets stored in our database for station/object SQ3MKP-13. If no packets are shown the sender has not sent any weather packets the latest 10 day(s).

<< 92 93 94 95 96 97 98 >>
Time Temp. Humidity Pressure Rain* Wind** Luminosity Snow
1787916454 25° C 46% 1004 hPa - - 592 W/m² -
1787916153 25° C 46% 1004.1 hPa - - 545 W/m² -
1787915852 24.44° C 46% 1004.1 hPa - - 411 W/m² -
1787915551 25° C 45% 1004.1 hPa - - 597 W/m² -
1787915250 24.44° C 46% 1004.3 hPa - - 620 W/m² -
1787914949 23.89° C 47% 1004.3 hPa - - 628 W/m² -
1787914648 23.89° C 47% 1004.3 hPa - - 424 W/m² -
1787914347 24.44° C 47% 1004.3 hPa - - 340 W/m² -
1787914046 24.44° C 48% 1004.6 hPa - - 483 W/m² -
1787913745 23.89° C 47% 1004.5 hPa - - 521 W/m² -
1787913444 23.89° C 47% 1004.6 hPa - - 490 W/m² -
1787913144 23.89° C 47% 1004.7 hPa - - 486 W/m² -
1787912843 23.89° C 48% 1004.9 hPa - - 508 W/m² -
1787912542 23.89° C 49% 1004.8 hPa - - 556 W/m² -
1787912241 23.33° C 49% 1004.9 hPa - - 464 W/m² -
1787911940 23.33° C 49% 1004.9 hPa - - 413 W/m² -
1787911639 23.33° C 49% 1004.9 hPa - - 350 W/m² -
1787911338 22.78° C 49% 1005 hPa - - 297 W/m² -
1787911040 22.78° C 49% 1005 hPa - - 446 W/m² -
1787910736 22.78° C 49% 1005 hPa - - 356 W/m² -
1787910435 22.78° C 50% 1005 hPa - - 298 W/m² -
1787910135 22.78° C 50% 1005.1 hPa - - 292 W/m² -
1787909834 22.78° C 50% 1005.3 hPa - - 394 W/m² -
1787909533 22.78° C 50% 1005.4 hPa - - 535 W/m² -
1787909231 22.22° C 50% 1005.6 hPa - - 486 W/m² -

* Rain since midnight (hover to see other rain measurements)
** Current wind speed in m/s (hover to see current wind gust speed)